• MPC Preparation (Info)

  • MPEC 2013-V86 : 2013 VW13

    The following Minor Planet Electronic Circular may be linked-to from your own Web pages, but must not otherwise be redistributed electronically.

    A form allowing access to any MPEC is at the bottom of this page.


    Read MPEC 2013-V85 Read MPEC 2013-V87


    M.P.E.C. 2013-V86                                Issued 2013 Nov. 13, 17:07 UT
    
         The Minor Planet Electronic Circulars contain information on unusual
             minor planets and routine data on comets.  They are published
       on behalf of Commission 20 of the International Astronomical Union by the
              Minor Planet Center, Smithsonian Astrophysical Observatory,
                              Cambridge, MA 02138, U.S.A.
    
                 Prepared using the Tamkin Foundation Computer Network
    
                                  MPC@CFA.HARVARD.EDU
                URL https://www.minorplanetcenter.net/    ISSN 1523-6714
    
                                       2013 VW13
    
    Observations:
         K13V13W* C2013 11 12.17353 02 24 26.72 +11 25 12.8          19.5 VqEV086G96
         K13V13W  C2013 11 12.18244 02 24 35.00 +11 25 20.7          19.5 VqEV086G96
         K13V13W  C2013 11 12.18868 02 24 40.77 +11 25 26.4          19.2 VqEV086G96
         K13V13W  C2013 11 12.19492 02 24 46.52 +11 25 32.0          19.7 VqEV086G96
         K13V13W  C2013 11 12.22772 02 25 16.21 +11 25 59.6          19.8 VqEV086G96
         K13V13W  C2013 11 12.22834 02 25 16.77 +11 25 59.9          19.3 VqEV086G96
         K13V13W  C2013 11 12.22897 02 25 17.34 +11 26 00.9          19.7 VqEV086G96
         K13V13W KC2013 11 12.30601 02 26 24.84 +11 26 57.9          19.9 RoEV086291
         K13V13W KC2013 11 12.30645 02 26 25.16 +11 26 58.8          19.4 RoEV086291
         K13V13W KC2013 11 12.30691 02 26 25.55 +11 26 59.0          19.6 RoEV086291
         K13V13W  C2013 11 12.33672 02 26 50.82 +11 27 14.9          19.4 VqEV086G96
         K13V13W  C2013 11 12.34951 02 27 01.70 +11 27 22.0          19.6 VqEV086G96
         K13V13W  C2013 11 12.36368 02 27 13.65 +11 27 29.4          19.7 VqEV086G96
         K13V13W  C2013 11 12.37363 02 27 22.08 +11 27 34.6          19.5 VqEV086G96
         K13V13W KC2013 11 12.88175 02 34 24.37 +11 31 21.6                qEV086J95
         K13V13W KC2013 11 12.89233 02 34 31.42 +11 31 26.4                qEV086J95
         K13V13W KC2013 11 12.90260 02 34 38.03 +11 31 31.5          20.3 RqEV086J95
         K13V13W KC2013 11 12.92212 02 34 49.18 +11 32 00.5          20.1 RtEV086204
         K13V13W KC2013 11 12.93764 02 34 58.97 +11 32 07.5                tEV086204
         K13V13W KC2013 11 12.95071 02 35 07.20 +11 32 13.7                tEV086204
         K13V13W KC2013 11 13.17124202 37 34.98 +11 34 05.9          19.8 VrEV086H21
         K13V13W KC2013 11 13.17649002 37 37.91 +11 34 08.2          20.1 VrEV086H21
         K13V13W KC2013 11 13.18150902 37 40.71 +11 34 10.3          19.9 VrEV086H21
    
    Observer details:
    204 Schiaparelli Observatory.  Observer L. Buzzi.  0.60-m f/4.64 reflector
        + CCD.
    291 LPL/Spacewatch II.  Observers T. H. Bressi, R. A. Mastaler.  1.8-m f/2.7
        reflector + CCD.
    G96 Mt. Lemmon Survey.  Observer J. A. Johnson.  Measurers A. Boattini,
        E. J. Christensen, A. R. Gibbs, A. D. Grauer, R. E. Hill, J. A. Johnson,
        R. A. Kowalski, S. M. Larson, F. C. Shelly.  1.5-m reflector + CCD.
    H21 Astronomical Research Observatory, Westfield.  Observer R. Holmes.
        Measurers S. Foglia, L. Buzzi, H. Devore, A. Kostin, T. Linder,
        T. Lister. T. Vorobjov.  0.81-m f/4.0 astrograph + CCD.
    J95 Great Shefford.  Observer P. Birtwhistle.  0.40-m f/6.0 Schmidt-Cassegrain
        + CCD.
    
    Orbital elements:
    2013 VW13                                                Earth MOID = 0.0023 AU
    Epoch 2013 Nov. 4.0 TT = JDT 2456600.5                  MPC
    M  19.55799              (2000.0)            P               Q
    n   0.45690988     Peri.  100.93423     +0.85405882     +0.51817845
    a   1.6694844      Node   227.87341     -0.49802056     +0.78925812
    e   0.5740050      Incl.    3.52094     -0.15019673     +0.32948856
    P   2.16           H   26.2           G   0.15           U   7
    Residuals in seconds of arc
    131112 G96  0.2-  0.1+    131112 291  0.3-  0.3+    131112 J95  0.4-  0.8-
    131112 G96  0.3-  0.2-    131112 291  0.3-  0.2+    131112 204  0.0   0.3+
    131112 G96  0.2-  0.1-    131112 G96  0.1-  0.2+    131112 204  0.1-  0.0
    131112 G96  0.1+  0.0     131112 G96  0.3+  0.2+    131112 204  0.4+  0.3+
    131112 G96  0.2+  0.1-    131112 G96  0.3-  0.0     131113 H21  0.1-  0.2+
    131112 G96  0.2+  0.3-    131112 G96  0.1+  0.1+    131113 H21  0.0   0.2+
    131112 G96  0.3+  0.2+    131112 J95  0.5-  0.8+    131113 H21  0.1+  0.2+
    131112 291  0.6+  0.3-    131112 J95  0.9+  0.3-
    
    Ephemeris:
    2013 VW13                a,e,i = 1.67, 0.57, 4                   q = 0.7112
    Date    TT    R. A. (2000) Decl.     Delta      r     Elong.  Phase     V
    2013 10 14    15 21 49.3 -11 54 54   0.2623  0.7848    31.2   138.9    29.5
    ...
    2013 10 29    15 41 40.5 -11 46 26   0.1047  0.8969    21.7   155.8    30.8
    ...
    2013 11 06    16 36 43.4 -11 07 47   0.02792 0.9667    27.7   151.5    27.1
    ...
    2013 11 12    02 21 13.1 +11 24 31   0.03225 1.0213   167.0    12.6    19.5
    2013 11 13    02 35 41.0 +11 34 33   0.04162 1.0305   169.1    10.5    20.0
    2013 11 14    02 44 50.6 +11 39 47   0.05111 1.0398   169.9     9.6    20.5
    ...
    2013 11 20    03 06 10.5 +11 51 51   0.1094  1.0955   168.5    10.4    22.3
    ...
    2013 11 28    03 14 41.3 +12 06 27   0.1907  1.1702   162.9    14.4    23.8
    ...
    2013 12 13    03 23 50.4 +12 52 05   0.3582  1.3082   150.5    21.8    25.6
    
    A. U. Tomatic                (C) Copyright 2013 MPC           M.P.E.C. 2013-V86
    

    Read MPEC 2013-V85 Read MPEC 2013-V87


    MPEC number:

    Enter an MPEC number in one of the following forms:

    • 1997-B01 (the full form)
    • J97B01 (the packed version of the full form)
    • B01 (the abbreviated form)